Temperature
1 1 0 -0 -0 -0 -0 -0 0 0 -1 -1 -2 -2 -2 -2 -2 -2 -2 -2 -2 -2 -2 -2 -1 -1 -1 -1 -1 -1 -1 -1 -1 -2 -2 -2 -2 -2 -3 -3 -3 -3 -3 -3
-0 0 -0 -1 -1 -1 -1 -1 -1 -1 -1 -2 -2 -2 -3 -3 -3 -3 -3 -3 -3 -3 -2 -2 -2 -2 -2 -2 -2 -2 -2 -2 -2 -2 -3 -3 -3 -3 -3 -4 -4 -4 -4 -4
-0 -0 -0 -1 -2 -2 -2 -3 -2 -2 -2 -3 -4 -4 -4 -4 -4 -4 -3 -3 -3 -3 -3 -3 -3 -3 -3 -3 -3 -3 -3 -3 -3 -3 -3 -3 -4 -4 -4 -4 -4 -4 -4 -5
-1 -1 -1 -1 -2 -2 -3 -3 -3 -3 -3 -4 -4 -4 -4 -4 -4 -4 -4 -3 -3 -4 -4 -3 -3 -3 -3 -3 -3 -3 -3 -4 -4 -4 -4 -4 -5 -5 -5 -5 -5 -5 -5 -5
-2 -2 -2 -2 -2 -3 -3 -3 -4 -4 -4 -5 -5 -5 -4 -4 -4 -4 -4 -4 -4 -4 -4 -4 -4 -4 -4 -4 -4 -4 -4 -4 -5 -5 -5 -5 -5 -5 -6 -6 -6 -6 -6 -6
-3 -2 -2 -2 -3 -3 -3 -3 -4 -5 -5 -6 -5 -5 -5 -4 -5 -5 -4 -4 -4 -4 -4 -5 -5 -5 -5 -5 -5 -5 -5 -5 -5 -5 -5 -6 -6 -6 -6 -6 -6 -6 -7 -7
-4 -3 -3 -4 -4 -3 -3 -3 -4 -5 -5 -5 -6 -5 -5 -5 -5 -5 -5 -5 -5 -5 -5 -5 -5 -5 -5 -5 -5 -5 -6 -6 -6 -6 -6 -6 -6 -7 -7 -7 -7 -7 -7 -7
-5 -4 -3 -5 -5 -4 -4 -4 -4 -4 -5 -5 -5 -6 -6 -6 -6 -6 -6 -6 -6 -6 -6 -6 -6 -6 -6 -6 -6 -6 -6 -6 -6 -7 -7 -7 -7 -7 -7 -8 -8 -8 -8 -8
-5 -4 -5 -5 -5 -4 -4 -4 -4 -5 -5 -6 -6 -6 -7 -7 -7 -7 -6 -6 -7 -7 -7 -7 -7 -7 -7 -7 -7 -7 -7 -7 -7 -7 -8 -8 -8 -8 -8 -8 -8 -9 -9 -9
-6 -6 -6 -5 -5 -5 -5 -5 -5 -5 -6 -6 -6 -7 -7 -7 -8 -8 -7 -7 -7 -7 -7 -7 -8 -8 -8 -8 -8 -8 -8 -8 -8 -8 -8 -8 -9 -9 -9 -9 -9 -9 -9 -9
-7 -7 -6 -6 -5 -5 -5 -6 -6 -6 -6 -7 -7 -7 -8 -8 -8 -8 -8 -8 -8 -8 -8 -8 -8 -8 -8 -8 -8 -8 -8 -9 -9 -9 -9 -9 -9 -9 -10 -9 -10 -10 -10 -10
-6 -6 -7 -6 -6 -6 -6 -6 -6 -7 -7 -7 -7 -8 -8 -9 -9 -9 -9 -9 -9 -9 -9 -9 -9 -9 -9 -9 -9 -9 -9 -9 -9 -10 -10 -10 -10 -10 -10 -10 -10 -10 -10 -10
-5 -6 -6 -6 -6 -7 -7 -7 -7 -7 -8 -8 -8 -8 -9 -9 -9 -10 -10 -10 -9 -9 -10 -10 -10 -9 -10 -10 -10 -10 -10 -10 -10 -10 -10 -10 -10 -11 -10 -10 -11 -11 -11 -11
-6 -6 -7 -7 -7 -7 -7 -8 -8 -8 -8 -9 -9 -9 -9 -10 -10 -10 -10 -10 -10 -10 -10 -10 -10 -10 -10 -10 -10 -10 -10 -11 -11 -11 -11 -11 -11 -11 -11 -11 -11 -11 -11 -11
-7 -7 -7 -8 -8 -8 -8 -8 -9 -9 -9 -9 -10 -10 -10 -10 -10 -10 -11 -11 -11 -11 -11 -11 -11 -11 -11 -11 -11 -11 -11 -11 -11 -11 -11 -11 -12 -12 -12 -12 -12 -12 -12 -12
-8 -8 -8 -8 -9 -9 -9 -9 -9 -10 -10 -10 -10 -10 -10 -11 -11 -11 -11 -11 -11 -11 -11 -11 -11 -11 -11 -11 -11 -11 -11 -11 -12 -12 -12 -12 -12 -12 -12 -12 -12 -13 -12 -12
-9 -10 -10 -10 -10 -10 -10 -10 -10 -10 -10 -11 -11 -11 -11 -11 -11 -11 -11 -12 -12 -12 -12 -12 -12 -12 -12 -12 -12 -12 -12 -12 -12 -12 -12 -13 -13 -13 -13 -13 -13 -13 -13 -13
-9 -9 -9 -9 -10 -10 -10 -10 -10 -11 -11 -11 -11 -11 -11 -11 -12 -12 -12 -12 -12 -12 -12 -12 -12 -12 -12 -12 -12 -13 -13 -13 -13 -13 -13 -13 -13 -13 -13 -14 -14 -14 -14 -14
-9 -9 -9 -10 -10 -10 -10 -11 -11 -11 -11 -11 -11 -12 -12 -12 -12 -12 -12 -12 -12 -12 -13 -13 -13 -13 -13 -13 -13 -13 -13 -13 -13 -14 -14 -14 -14 -14 -14 -14 -14 -14 -14 -14
-10 -10 -10 -10 -11 -11 -11 -11 -11 -11 -12 -12 -12 -12 -12 -12 -12 -13 -13 -13 -13 -13 -13 -13 -13 -13 -13 -13 -14 -14 -14 -14 -14 -14 -14 -14 -14 -14 -14 -14 -14 -14 -14 -14
-10 -10 -11 -11 -11 -11 -11 -12 -12 -12 -12 -12 -12 -12 -13 -13 -13 -13 -13 -13 -13 -13 -13 -14 -14 -14 -14 -14 -14 -14 -14 -14 -14 -14 -15 -15 -15 -15 -15 -15 -15 -15 -15 -15
-10 -11 -11 -11 -11 -12 -12 -12 -12 -12 -12 -12 -13 -13 -13 -13 -13 -13 -13 -13 -13 -14 -14 -14 -14 -14 -14 -14 -14 -14 -14 -15 -15 -15 -15 -15 -15 -15 -15 -15 -15 -15 -15 -15
-11 -11 -11 -12 -12 -12 -12 -12 -13 -13 -13 -13 -13 -13 -13 -13 -13 -13 -13 -14 -14 -14 -14 -14 -14 -14 -14 -14 -15 -15 -15 -15 -15 -15 -15 -15 -15 -15 -15 -15 -15 -15 -15 -15
-11 -12 -12 -12 -12 -12 -13 -13 -13 -13 -13 -13 -13 -13 -14 -14 -14 -14 -14 -14 -14 -14 -14 -14 -14 -15 -15 -15 -15 -15 -15 -15 -15 -15 -15 -15 -16 -16 -16 -16 -16 -16 -16 -16
-12 -12 -12 -12 -13 -13 -13 -13 -13 -13 -14 -14 -14 -14 -14 -14 -14 -14 -14 -14 -14 -15 -15 -15 -15 -15 -15 -15 -15 -15 -15 -15 -16 -16 -16 -16 -16 -16 -16 -16 -16 -16 -16 -16
-12 -12 -13 -13 -13 -13 -13 -14 -14 -14 -14 -14 -14 -14 -14 -14 -14 -15 -15 -15 -15 -15 -15 -15 -15 -15 -15 -16 -16 -16 -16 -16 -16 -16 -16 -16 -16 -16 -16 -16 -16 -16 -16 -16
-13 -13 -13 -13 -14 -14 -14 -14 -14 -14 -14 -14 -14 -14 -15 -15 -15 -15 -15 -15 -15 -15 -15 -15 -16 -16 -16 -16 -16 -16 -16 -16 -16 -16 -17 -17 -17 -17 -17 -17 -17 -17 -17 -17
Wind_Speed
4 3 2 2 3 3 4 4 5 4 4 6 5 4 4 3 1 2 1 1 1 1 1 1 1 2 2 2 2 3 4 5 4 4 4 5 5 5 4 4 4 4 4 3
2 2 1 2 4 3 4 3 4 4 5 5 4 2 3 2 1 1 1 1 1 1 1 0 0 1 1 2 2 3 4 4 4 5 5 5 5 5 4 4 3 3 3 3
3 2 2 4 4 4 2 2 3 6 7 4 3 3 2 2 1 1 2 2 2 2 2 1 1 1 2 2 2 3 3 4 4 5 5 5 5 5 4 4 3 3 2 3
1 2 3 5 1 2 3 2 2 3 3 3 4 3 1 1 1 2 3 3 2 1 1 0 1 1 2 2 3 3 3 4 4 4 4 4 5 4 4 3 3 3 2 2
2 2 6 5 1 1 3 4 2 3 3 3 3 2 3 3 3 3 3 2 2 1 0 1 2 2 3 3 3 3 3 3 3 4 5 5 5 4 3 3 3 3 2 2
2 3 5 5 3 2 2 4 2 1 2 2 1 1 3 3 4 3 3 3 2 2 2 2 2 2 4 3 3 2 2 2 3 3 4 4 4 4 3 3 3 2 2 1
3 4 6 4 3 2 3 5 2 2 2 2 2 3 2 3 3 3 3 3 3 3 3 2 2 3 3 2 2 1 1 2 2 3 4 4 4 3 3 3 3 2 1 1
3 4 7 2 3 4 4 1 1 1 1 1 1 0 1 2 2 3 4 4 4 3 3 3 2 3 3 1 1 2 2 3 2 3 3 3 4 3 3 3 3 2 1 1
6 6 2 2 4 2 1 1 1 1 1 1 1 1 0 1 2 2 3 3 4 3 3 3 3 2 2 1 2 3 3 3 3 3 2 3 3 3 3 2 2 2 2 2
3 5 4 3 2 2 1 1 1 0 0 1 1 1 0 1 2 2 2 3 3 3 3 3 3 3 1 1 2 3 3 2 2 2 2 2 2 2 2 3 2 2 2 2
5 5 3 3 2 2 1 1 2 2 1 1 1 1 1 1 1 1 2 3 3 2 2 3 3 3 3 2 2 2 2 2 2 2 2 1 1 1 2 2 3 3 3 3
7 5 4 4 2 1 1 1 1 1 1 1 1 2 1 1 1 1 2 2 3 3 3 3 3 3 3 3 2 2 2 2 1 1 1 1 1 1 1 1 2 2 2 2
4 2 2 2 1 1 1 1 1 1 2 1 1 1 2 1 1 2 2 2 2 2 2 3 3 3 3 3 2 2 2 1 1 1 1 1 1 1 1 2 2 2 3 3
1 1 1 1 1 0 1 2 2 3 2 2 2 2 2 2 2 2 1 1 1 2 2 2 2 3 3 2 2 2 1 1 1 1 1 1 1 1 0 0 1 2 3 4
1 0 2 1 1 2 2 3 4 3 2 2 2 2 2 2 1 1 1 1 2 2 2 2 2 2 2 2 2 1 1 0 0 1 1 1 1 1 0 0 1 2 2 3
1 1 2 2 2 1 2 2 2 1 1 1 1 1 1 1 1 1 1 1 1 1 1 1 2 2 2 1 1 1 1 1 1 1 1 0 0 0 1 1 1 2 2 3
3 2 2 2 2 2 2 2 2 2 2 1 1 1 2 2 2 1 1 1 1 1 1 1 2 2 1 1 0 0 0 1 1 1 0 0 1 1 1 1 2 2 3 4
3 3 4 5 4 3 2 2 2 2 2 2 2 2 2 2 1 0 1 1 1 2 2 2 1 1 1 1 0 0 0 0 0 1 1 1 1 1 1 2 3 3 3 4
1 2 2 2 3 3 3 2 2 1 1 2 2 2 1 1 1 1 0 0 0 2 3 2 2 1 1 2 1 0 0 0 1 1 1 2 2 1 2 2 3 4 4 4
2 2 3 2 2 2 2 2 2 2 1 2 2 2 1 0 1 1 1 1 2 2 2 2 1 1 1 2 1 0 0 1 1 1 1 2 2 2 3 3 3 4 4 4
3 3 2 2 2 2 2 2 2 2 1 2 2 2 1 1 1 1 1 1 2 2 2 3 1 1 1 1 1 0 1 1 1 2 2 2 3 3 3 4 4 4 4 4
3 3 3 3 2 1 1 1 2 2 1 1 1 1 1 1 1 1 2 2 3 3 2 1 2 3 2 1 0 1 1 2 2 2 2 3 3 4 4 4 5 5 5 5
2 3 3 2 2 2 1 1 1 1 1 1 1 2 2 2 1 1 2 2 2 3 2 2 3 4 3 1 0 1 2 2 3 3 3 3 4 4 4 5 5 5 5 5
3 2 2 2 2 2 1 0 1 1 1 1 1 1 1 1 1 2 2 3 4 3 2 3 5 4 3 1 1 1 2 3 3 4 4 4 4 4 5 5 5 5 6 6
3 3 3 3 2 1 1 1 1 1 0 0 1 1 1 1 2 2 2 2 4 3 2 4 5 5 2 1 2 2 3 4 4 4 4 4 4 5 5 5 5 6 6 6
3 2 2 2 2 1 1 1 1 1 0 0 1 1 1 1 1 1 1 2 3 3 3 2 3 4 2 2 3 3 4 5 5 4 4 5 5 5 6 6 7 7 7 7
2 2 2 1 1 1 1 1 1 1 1 1 1 1 1 1 1 1 2 2 2 2 2 2 3 3 3 3 3 4 4 4 4 4 5 5 5 5 6 7 7 8 8 8
Wind_Direction
249 257 185 240 264 206 197 211 212 232 230 275 291 291 307 319 357 52 37 24 10 5 18 40 56 69 92 108 112 129 139 144 152 147 145 145 144 144 142 146 151 152 152 156
277 247 167 294 302 242 233 238 232 254 273 292 305 333 345 337 6 36 321 305 312 309 302 16 89 96 98 103 111 125 137 143 142 144 144 143 142 143 142 143 147 146 153 162
261 302 10 293 264 229 211 220 198 233 255 299 319 322 309 293 312 325 315 304 286 270 240 223 192 150 139 133 115 123 133 136 141 143 144 146 146 144 145 146 144 145 155 168
247 41 245 243 225 178 185 236 225 238 275 285 284 297 309 342 335 329 327 326 312 295 271 139 109 110 113 114 118 120 130 139 144 147 147 147 147 150 151 152 154 156 165 177
162 225 268 282 275 167 200 259 250 247 283 326 343 352 334 3 354 318 315 316 320 325 110 90 90 109 115 112 116 118 125 142 152 154 153 151 153 154 153 149 150 157 164 169
159 201 243 254 270 274 154 271 284 239 250 305 37 339 286 342 348 345 358 8 15 33 71 78 64 95 113 119 120 133 149 157 155 153 154 158 160 153 142 144 152 152 155 169
196 227 262 270 292 100 159 260 280 219 225 211 211 234 282 341 352 4 16 20 33 48 63 65 69 97 108 113 129 137 128 129 138 147 152 154 150 143 140 140 135 140 154 198
178 214 254 264 121 175 224 304 314 265 235 206 221 332 2 6 17 25 25 28 38 49 49 47 62 100 109 112 93 94 103 108 122 134 145 141 138 138 137 141 144 153 162 220
199 213 248 177 191 230 186 276 296 284 271 153 166 221 340 14 18 22 30 34 42 52 51 39 42 81 112 90 85 98 102 105 108 114 124 133 143 148 146 155 161 179 190 216
238 254 252 249 276 304 286 259 290 292 178 147 168 189 38 46 32 25 28 38 45 55 53 30 21 36 56 78 92 103 112 113 115 114 120 129 140 156 166 177 183 196 206 222
247 267 287 276 264 267 3 55 51 44 53 124 131 118 83 57 34 22 28 37 48 51 45 27 23 24 25 52 97 104 115 116 114 115 122 117 130 173 187 202 197 197 207 212
236 232 221 247 229 182 156 194 158 95 38 41 126 138 102 94 68 47 47 43 40 36 32 23 27 24 17 22 80 114 110 109 116 117 116 113 103 37 326 273 257 252 253 247
242 263 235 242 205 161 184 176 143 134 148 116 73 105 106 107 89 76 61 51 37 23 19 22 26 19 13 23 56 96 118 128 129 123 132 140 130 118 22 352 350 329 307 296
179 107 235 245 242 213 116 107 96 83 84 99 97 93 97 93 85 80 56 30 37 42 32 30 29 13 7 25 50 68 81 131 137 163 173 172 161 163 171 225 332 331 333 330
319 278 199 173 102 83 98 104 97 85 78 70 84 95 102 105 100 64 34 38 50 48 33 28 20 354 357 21 46 50 40 39 165 155 158 156 152 160 185 245 282 303 320 323
315 63 102 120 135 128 113 119 126 133 120 112 99 109 129 125 111 70 49 63 72 25 348 353 338 329 347 14 30 32 3 5 51 97 118 128 158 185 223 251 270 280 287 291
149 180 188 190 190 191 194 190 179 182 175 180 192 158 118 103 87 61 24 4 348 313 309 309 311 325 339 350 1 341 334 343 14 45 133 219 231 235 244 253 263 273 276 282
205 204 194 190 190 190 190 177 174 176 185 194 157 127 127 136 159 246 318 356 12 358 333 315 315 329 343 345 345 312 277 274 269 249 254 255 258 249 254 260 266 275 283 291
144 153 160 173 179 174 176 181 178 170 163 148 139 149 161 170 182 212 232 54 358 317 316 314 326 0 344 323 350 102 25 314 303 300 285 287 304 282 269 267 268 270 275 279
122 118 123 124 128 140 157 161 152 139 139 139 136 132 133 201 209 215 222 254 260 259 283 304 314 309 294 300 319 180 221 254 266 275 277 272 278 278 275 274 274 273 272 272
136 128 127 126 116 114 138 147 145 148 151 148 154 173 201 233 231 210 207 281 296 288 290 303 312 284 257 271 283 198 239 258 265 266 270 270 273 273 272 273 274 275 274 275
146 145 145 137 128 114 89 125 145 151 147 146 155 165 176 230 272 285 260 248 277 304 317 291 282 285 282 296 179 227 250 260 266 267 266 268 269 272 273 273 273 275 274 273
153 151 149 147 146 139 89 90 133 154 166 180 190 199 210 227 224 224 275 278 286 295 307 284 292 299 306 1 3 265 269 271 271 269 266 266 267 269 272 275 275 275 275 275
142 142 139 127 117 114 100 51 82 119 164 205 213 210 206 228 267 251 247 282 298 303 296 297 309 314 327 12 307 285 279 277 274 271 270 270 270 270 271 273 275 276 275 275
141 138 132 131 136 159 172 131 97 95 121 287 289 270 249 225 231 257 270 277 294 312 311 309 316 322 336 311 286 278 276 273 272 273 267 273 273 273 274 273 273 273 274 274
145 154 162 169 167 166 166 164 182 214 214 276 307 298 292 273 251 264 279 288 294 311 319 309 309 310 307 292 285 282 281 289 296 294 281 278 277 276 277 276 274 274 274 273
124 128 132 123 138 154 164 180 198 222 227 219 259 281 289 301 299 294 297 300 304 306 302 300 298 295 293 291 289 287 285 284 283 283 283 282 280 279 278 276 277 276 276 274
Height
1475 1473 1474 1476 1475 1475 1476 1474 1475 1472 1474 1470 1469 1468 1467 1465 1464 1463 1462 1462 1462 1462 1462 1462 1462 1463 1464 1465 1466 1467 1469 1470 1471 1473 1474 1476 1477 1479 1481 1482 1484 1485 1487 1489
1476 1472 1473 1476 1475 1474 1474 1474 1474 1473 1472 1468 1468 1467 1466 1464 1463 1462 1461 1461 1461 1461 1461 1460 1461 1461 1462 1463 1464 1465 1466 1467 1469 1470 1472 1473 1475 1476 1478 1479 1481 1483 1484 1485
1477 1474 1472 1477 1475 1473 1474 1474 1473 1473 1470 1467 1467 1465 1465 1464 1463 1461 1461 1460 1460 1459 1459 1459 1459 1460 1460 1461 1462 1463 1464 1465 1466 1468 1469 1471 1472 1474 1475 1476 1478 1480 1481 1482
1479 1480 1481 1473 1470 1470 1472 1472 1471 1469 1467 1467 1465 1464 1463 1462 1461 1460 1459 1459 1458 1458 1458 1458 1458 1458 1459 1459 1460 1461 1462 1463 1464 1466 1467 1469 1470 1471 1473 1474 1475 1477 1478 1480
1483 1483 1477 1471 1469 1471 1472 1470 1469 1468 1466 1465 1464 1463 1461 1460 1460 1459 1459 1458 1457 1457 1456 1456 1456 1457 1457 1458 1458 1459 1460 1461 1462 1464 1465 1466 1468 1469 1470 1472 1473 1474 1476 1477
1483 1481 1476 1469 1468 1466 1469 1469 1466 1465 1465 1464 1463 1465 1462 1459 1458 1457 1457 1456 1456 1455 1455 1455 1455 1456 1456 1456 1456 1457 1458 1459 1461 1462 1463 1464 1465 1467 1468 1469 1470 1472 1473 1474
1483 1483 1475 1470 1467 1466 1472 1467 1464 1463 1462 1463 1463 1462 1461 1458 1457 1456 1455 1455 1454 1454 1454 1454 1454 1454 1454 1454 1455 1456 1457 1458 1459 1460 1461 1462 1464 1465 1466 1467 1468 1469 1470 1471
1483 1482 1476 1467 1467 1468 1466 1463 1462 1461 1461 1461 1460 1459 1458 1457 1456 1454 1454 1453 1453 1452 1452 1453 1453 1453 1453 1453 1454 1455 1455 1456 1457 1458 1459 1460 1461 1462 1463 1464 1465 1466 1467 1468
1474 1471 1467 1465 1464 1463 1463 1462 1461 1460 1460 1459 1459 1458 1457 1456 1455 1454 1453 1453 1452 1451 1451 1452 1452 1452 1452 1453 1453 1453 1454 1454 1455 1456 1457 1458 1459 1460 1461 1462 1463 1463 1464 1465
1470 1466 1464 1463 1462 1461 1461 1460 1460 1459 1459 1458 1457 1456 1456 1455 1454 1453 1452 1451 1451 1451 1451 1451 1451 1452 1452 1452 1452 1452 1452 1453 1453 1454 1455 1456 1457 1458 1459 1459 1460 1461 1462 1462
1466 1463 1462 1460 1460 1459 1459 1458 1458 1457 1457 1456 1455 1455 1454 1453 1453 1452 1451 1451 1451 1450 1450 1450 1450 1451 1451 1451 1451 1450 1451 1451 1452 1452 1453 1454 1455 1456 1457 1458 1458 1459 1459 1460
1460 1458 1458 1457 1457 1457 1457 1456 1456 1455 1455 1455 1454 1453 1452 1452 1452 1452 1451 1451 1450 1450 1450 1450 1450 1450 1450 1450 1450 1449 1449 1450 1450 1450 1451 1452 1453 1454 1455 1456 1456 1456 1457 1457
1455 1454 1454 1454 1454 1454 1454 1454 1454 1453 1453 1453 1452 1452 1451 1451 1451 1451 1450 1450 1450 1449 1449 1449 1449 1449 1449 1449 1448 1448 1448 1448 1448 1449 1449 1450 1450 1451 1452 1453 1453 1454 1454 1454
1452 1452 1452 1451 1451 1452 1451 1451 1451 1451 1451 1451 1451 1451 1450 1450 1450 1450 1450 1450 1450 1449 1449 1449 1448 1448 1448 1448 1447 1447 1447 1447 1447 1447 1448 1448 1449 1449 1450 1450 1450 1450 1451 1450
1449 1449 1449 1449 1449 1449 1449 1449 1449 1449 1449 1450 1450 1450 1449 1449 1449 1449 1450 1449 1449 1449 1448 1448 1447 1447 1447 1447 1446 1446 1446 1446 1446 1446 1446 1446 1447 1447 1447 1447 1447 1447 1447 1447
1447 1447 1447 1447 1447 1447 1447 1447 1447 1447 1447 1448 1448 1448 1448 1448 1448 1449 1449 1449 1448 1448 1447 1447 1447 1447 1446 1446 1445 1445 1445 1445 1444 1444 1444 1444 1444 1444 1444 1444 1444 1444 1444 1444
1444 1444 1444 1445 1445 1445 1445 1445 1445 1445 1446 1446 1447 1447 1447 1447 1447 1447 1448 1448 1448 1447 1447 1446 1446 1446 1445 1445 1444 1444 1443 1443 1443 1443 1442 1442 1442 1442 1442 1442 1441 1441 1441 1440
1442 1442 1442 1442 1443 1443 1444 1444 1444 1444 1444 1445 1445 1446 1446 1446 1446 1446 1446 1446 1446 1446 1446 1446 1445 1445 1444 1444 1443 1442 1442 1441 1441 1440 1440 1440 1439 1439 1439 1438 1438 1437 1437 1437
1440 1441 1441 1442 1442 1442 1442 1443 1443 1443 1444 1444 1444 1444 1445 1445 1445 1445 1445 1445 1445 1444 1444 1444 1444 1443 1443 1442 1441 1441 1440 1439 1438 1438 1437 1437 1436 1436 1436 1435 1435 1434 1433 1433
1439 1440 1440 1440 1441 1441 1441 1442 1442 1442 1442 1443 1443 1443 1443 1444 1444 1444 1444 1443 1443 1443 1443 1442 1442 1441 1441 1440 1439 1438 1438 1437 1436 1435 1434 1434 1433 1433 1432 1431 1431 1430 1429 1428
1438 1438 1439 1439 1440 1440 1441 1441 1441 1441 1441 1442 1442 1442 1442 1442 1442 1442 1442 1442 1442 1441 1441 1440 1440 1439 1438 1438 1437 1436 1435 1434 1433 1432 1431 1430 1430 1429 1428 1427 1427 1426 1425 1424
1437 1437 1438 1438 1439 1439 1440 1440 1440 1441 1440 1440 1441 1441 1441 1441 1441 1441 1441 1440 1440 1440 1439 1438 1438 1437 1436 1435 1434 1433 1432 1431 1430 1429 1428 1427 1426 1425 1424 1423 1422 1421 1420 1419
1435 1436 1437 1437 1438 1438 1439 1439 1439 1440 1439 1439 1439 1439 1439 1439 1439 1439 1439 1439 1438 1438 1437 1436 1436 1435 1434 1433 1432 1431 1429 1428 1427 1426 1425 1423 1422 1421 1420 1419 1417 1416 1415 1413
1434 1435 1436 1436 1437 1437 1437 1438 1438 1438 1438 1438 1438 1438 1438 1438 1438 1438 1437 1437 1436 1436 1435 1434 1433 1432 1431 1430 1429 1427 1426 1425 1424 1422 1421 1419 1418 1417 1415 1414 1412 1411 1410 1408
1433 1434 1435 1435 1436 1436 1437 1437 1437 1437 1437 1437 1437 1437 1437 1436 1436 1436 1435 1435 1434 1433 1433 1432 1431 1429 1428 1427 1425 1424 1423 1421 1420 1418 1417 1415 1414 1412 1411 1409 1407 1406 1404 1403
1432 1433 1434 1434 1435 1435 1435 1436 1436 1436 1435 1435 1435 1435 1435 1435 1434 1434 1433 1432 1432 1431 1430 1429 1427 1426 1425 1423 1422 1420 1419 1417 1416 1414 1413 1411 1409 1407 1406 1404 1402 1400 1399 1397
1432 1432 1433 1433 1434 1434 1434 1434 1434 1434 1434 1434 1434 1434 1433 1433 1432 1431 1431 1430 1429 1428 1427 1425 1424 1423 1421 1420 1418 1416 1415 1413 1411 1410 1408 1406 1404 1402 1401 1399 1397 1395 1393 1391